Regional Weather Roundup
Issued by NWS

Home | Current Version | Previous Version | Text Only | Print | Product List | Glossary Off
Versions: 1 2 3 4 5 6 7 8 9 10 11 12 13 14 15 16 17 18 19 20 21 22 23 24 25 26 27 28 29 30 31 32 33 34 35 36 37 38 39 40 41 42 43 44 45 46 47 48 49 50

000
ASUS45 KPSR 291610
RWRAZ

ARIZONA REGIONAL HOURLY WEATHER ROUNDUP
NATIONAL WEATHER SERVICE PHOENIX AZ
900 AM MST THU JAN 29 2015

NOTE: FAIR INDICATES FEW OR NO CLOUDS BELOW 12,000 FEET WITH NO
SIGNIFICANT WEATHER AND/OR OBSTRUCTIONS TO VISIBILITY.

AZZ001>003-036-291700-
NORTHWEST ARIZONA

CITY           SKY/WX    TMP DP  RH WIND       PRES   REMARKS
BULLHEAD CITY  CLOUDY    64  45  48 N23       30.11R
KINGMAN        CLOUDY    48  44  86 E5        30.18R
$$

AZZ004>008-015-016-018-291700-
NORTH CENTRAL ARIZONA

CITY           SKY/WX    TMP DP  RH WIND       PRES   REMARKS
GRAND CANYON   CLOUDY    41  29  62 E10       30.29R
PRESCOTT       CLOUDY    45  33  63 CALM      30.22R
FLAGSTAFF      CLOUDY    40  28  62 E8        30.30R WCI  34
PAYSON         CLOUDY    50  28  43 NE8       30.24R
$$

AZZ009>014-017-291700-
NORTHEAST ARIZONA

CITY           SKY/WX    TMP DP  RH WIND       PRES   REMARKS
WINSLOW        CLOUDY    42  35  76 CALM      30.30R
SAINT JOHNS    CLOUDY    39  32  76 NW3       30.28R
WINDOW ROCK    CLOUDY    36  29  75 CALM      30.34R
SHOW LOW       CLOUDY    37  28  70 CALM      30.32R
$$

AZZ023-291700-
GREATER PHOENIX AREA

CITY           SKY/WX    TMP DP  RH WIND       PRES   REMARKS
PHOENIX        CLOUDY    61  47  59 E5        30.06R
BUCKEYE          N/A     55  55 100 CALM      30.08R
GLENDALE       CLOUDY    57  54  88 CALM      30.08R
LUKE AFB       NOT AVBL
DEER VALLEY    CLOUDY    59  45  59 NE3       30.06S
SCOTTSDALE     CLOUDY    57  47  69 CALM      30.07S
MESA-FALCON    CLOUDY    59  41  51 N6        30.06R
MESA-GATEWAY   CLOUDY    55  52  88 S5        30.09R
CHANDLER       CLOUDY    57  52  82 CALM      30.07S
$$

AZZ027-028-291700-
SOUTHWEST MARICOPA COUNTY AND PINAL COUNTY

CITY           SKY/WX    TMP DP  RH WIND       PRES   REMARKS
CASA GRANDE    CLOUDY    55  50  82 CALM      30.08R
GILA BEND      PTSUNNY   59  54  84 E2        30.07R
$$

AZZ503-504-507>509-291700-
SOUTHEAST ARIZONA

CITY           SKY/WX    TMP DP  RH WIND       PRES   REMARKS
TUCSON         CLOUDY    59  45  59 SE16      30.12R
DAVIS-MONTHAN  CLOUDY    57  46  66 S9        30.11R
RYAN FIELD       N/A     55  50  82 SE8       30.10R
NOGALES        CLOUDY    51  43  74 NE5       30.17R
SIERRA VISTA   CLOUDY    55  37  50 CALM      30.20R
DOUGLAS        CLOUDY    49  32  52 N3        30.20S
SAFFORD        CLOUDY    53  36  52 S13       30.19R
$$

AZZ020-021-025-026-031-291700-
SOUTHWEST ARIZONA

CITY           SKY/WX    TMP DP  RH WIND       PRES   REMARKS
YUMA           CLOUDY    64  48  56 N7        30.08R
$$

CAZ031-033-041-043-047-048-061-291700-
SOUTHERN CALIFORNIA

CITY           SKY/WX    TMP DP  RH WIND       PRES   REMARKS
DOWNTOWN L.A.  CLOUDY    64  44  48 CALM      30.04R
L.A. AIRPORT   CLOUDY    62  45  53 E6        30.04R
SAN DIEGO      CLOUDY    63  45  51 CALM      30.05R
BURBANK        CLOUDY    59  43  55 CALM      30.05R
ONTARIO        CLOUDY    58  44  60 W5        30.05R
RIVERSIDE      CLOUDY    61  44  53 E6        30.07R
PALM SPRINGS   CLOUDY    65  40  39 W6        30.11R
EL CENTRO NAS  CLOUDY    60  51  72 NW7       30.07S
IMPERIAL       CLOUDY    59  51  75 NW3       30.07R
BLYTHE         CLOUDY    60  50  69 S5        30.10R
NEEDLES        CLOUDY    62  45  53 NW5       30.11R
$$

NVZ020-UTZ003-291700-
SOUTHERN NEVADA-UTAH

CITY           SKY/WX    TMP DP  RH WIND       PRES   REMARKS
LAS VEGAS      CLOUDY    56  43  61 S8        30.15R
SALT LAKE CITY MOSUNNY   31  30  96 CALM      30.36S
$$

NMZ009-TXZ055-291700-
NEW MEXICO-WEST TEXAS

CITY           SKY/WX    TMP DP  RH WIND       PRES   REMARKS
ALBUQUERQUE    CLOUDY    48  29  47 E26G37    30.38R
EL PASO        CLOUDY    52  37  56 N10       30.28R
$$


........................KEY........................
SKY/WX - SKY CONDITION/WEATHER
TMP    - TEMPERATURE IN FAHRENHEIT
DP     - DEW POINT IN FAHRENHEIT
RH     - RELATIVE HUMIDITY IN PERCENT
WIND   - DIRECTION AND SPEED IN MILES PER HOUR (MPH)
VRB    - VARIABLE WIND DIRECTION
PRES   - MEAN SEA LEVEL PRESSURE IN INCHES OF MERCURY
         F - FALLING PRESSURE   R - RISING PRESSURE
         S - STEADY PRESSURE
VSB    - VISIBILITY IN MILES
HX     - HEAT INDEX IN FAHRENHEIT
WCI    - WIND CHILL INDEX IN FAHRENHEIT
TC     - TEMPERATURE IN CELSIUS WHICH IS ALSO KNOWN AS
         TEMPERATURE IN CENTIGRADE
AFB    - AIR FORCE BASE
         LUKE AFB IS LUKE AIR FORCE BASE
         DAVIS-MONTHAN IS DAVIS-MONTHAN AIR FORCE BASE
NAS    - NAVAL AIR STATION
         EL CENTRO NAS IS EL CENTRO NAVAL AIR STATION
N/A    - NOT AVAILABLE



USA.gov is the U.S. government's official web portal to all federal, state and local government web resources and services.